This is the latest recevied weather packets stored in our database for station/object KC1ELF. If no packets are shown the sender has not sent any weather packets the latest 10 day(s).
| Time | Temp. | Humidity | Pressure | Rain* | Wind** | Luminosity | Snow |
|---|---|---|---|---|---|---|---|
| 1777905696 | 18.89° C | 41% | 1008.1 hPa | 0 mm | - | - | - |
| 1777905095 | 18.89° C | 41% | 1008.2 hPa | 0 mm | - | - | - |
| 1777904495 | 18.33° C | 44% | 1008.2 hPa | 0 mm | - | - | - |
| 1777903895 | 17.22° C | 44% | 1008.4 hPa | 0 mm | - | - | - |
| 1777903297 | 17.22° C | 45% | 1008.5 hPa | 0 mm | - | - | - |
| 1777902697 | 16.67° C | 46% | 1008.5 hPa | 0 mm | - | - | - |
| 1777902098 | 16.11° C | 47% | 1008.5 hPa | 0 mm | - | - | - |
| 1777901497 | 15.56° C | 49% | 1008.7 hPa | 0 mm | - | - | - |
| 1777900896 | 15° C | 49% | 1008.7 hPa | 0 mm | - | - | - |
| 1777900296 | 14.44° C | 51% | 1008.9 hPa | 0 mm | - | - | - |
| 1777899695 | 13.89° C | 52% | 1009.2 hPa | 0 mm | - | - | - |
| 1777899096 | 13.33° C | 54% | 1009.1 hPa | 0 mm | - | - | - |
| 1777898496 | 12.78° C | 56% | 1009.3 hPa | 0 mm | - | - | - |
| 1777897896 | 11.67° C | 57% | 1009.4 hPa | 0 mm | - | - | - |
| 1777897296 | 11.11° C | 59% | 1009.4 hPa | 0 mm | - | - | - |
| 1777896698 | 10.56° C | 60% | 1009.5 hPa | 0 mm | - | - | - |
| 1777896096 | 10° C | 62% | 1009.5 hPa | 0 mm | - | - | - |
| 1777895496 | 9.44° C | 64% | 1009.5 hPa | 0 mm | - | - | - |
| 1777894896 | 8.89° C | 65% | 1009.5 hPa | 0 mm | - | - | - |
| 1777894296 | 8.33° C | 66% | 1009.5 hPa | 0 mm | - | - | - |
| 1777893696 | 7.78° C | 66% | 1009.5 hPa | 0 mm | - | - | - |
| 1777893096 | 7.78° C | 66% | 1009.5 hPa | 0 mm | - | - | - |
| 1777892496 | 7.78° C | 66% | 1009.5 hPa | 0 mm | - | - | - |
| 1777891896 | 7.78° C | 67% | 1009.5 hPa | 0 mm | - | - | - |
| 1777891296 | 7.78° C | 68% | 1009.5 hPa | 0 mm | - | - | - |
* Rain latest hour (hover to see other rain measurements)
** Current wind speed in m/s (hover to see current wind gust speed)